TimeMDT,TemperatureF,Dew PointF,Humidity,Sea Level PressureIn,VisibilityMPH,Wind Direction,Wind SpeedMPH,Gust SpeedMPH,PrecipitationIn,Events,Conditions,WindDirDegrees,DateUTC
12:53 AM,46.0,27.0,47,29.81,10.0,SE,5.8,-,N/A,,Clear,130,2013-04-28 06:53:00
1:53 AM,45.0,27.0,49,29.80,10.0,West,3.5,-,N/A,,Clear,280,2013-04-28 07:53:00
2:53 AM,39.9,28.0,63,29.80,10.0,West,4.6,-,N/A,,Clear,260,2013-04-28 08:53:00
3:53 AM,42.1,28.0,58,29.79,10.0,WSW,4.6,-,N/A,,Clear,250,2013-04-28 09:53:00
4:53 AM,48.9,27.0,43,29.78,10.0,WSW,3.5,-,N/A,,Clear,250,2013-04-28 10:53:00
5:53 AM,48.0,28.0,46,29.78,10.0,Calm,Calm,-,N/A,,Clear,0,2013-04-28 11:53:00
7:53 AM,55.0,30.0,38,29.80,10.0,WNW,4.6,-,N/A,,Clear,300,2013-04-28 13:53:00
8:53 AM,62.1,30.9,31,29.79,10.0,WNW,6.9,-,N/A,,Clear,300,2013-04-28 14:53:00
9:53 AM,70.0,27.0,20,29.79,10.0,WNW,19.6,26.5,N/A,,Clear,300,2013-04-28 15:53:00
10:53 AM,72.0,26.1,18,29.79,10.0,WNW,20.7,26.5,N/A,,Clear,290,2013-04-28 16:53:00
11:53 AM,72.0,26.1,18,29.79,10.0,NNW,20.7,32.2,N/A,,Clear,330,2013-04-28 17:53:00
12:53 PM,73.0,28.0,19,29.80,10.0,NW,12.7,20.7,N/A,,Clear,310,2013-04-28 18:53:00
1:53 PM,73.0,26.1,17,29.79,10.0,NNW,11.5,20.7,N/A,,Clear,340,2013-04-28 19:53:00
2:53 PM,72.0,27.0,19,29.79,10.0,North,10.4,20.7,N/A,,Clear,360,2013-04-28 20:53:00
3:53 PM,75.0,27.0,17,29.74,10.0,North,12.7,18.4,N/A,,Clear,10,2013-04-28 21:53:00
4:53 PM,73.0,30.0,20,29.75,10.0,East,13.8,-,N/A,,Mostly Cloudy,80,2013-04-28 22:53:00
5:53 PM,69.1,30.0,23,29.75,10.0,East,17.3,-,N/A,,Scattered Clouds,80,2013-04-28 23:53:00
6:53 PM,66.9,30.9,26,29.77,10.0,ENE,13.8,-,N/A,,Overcast,70,2013-04-29 00:53:00
7:53 PM,64.0,32.0,30,29.76,10.0,East,13.8,-,N/A,,Mostly Cloudy,90,2013-04-29 01:53:00
8:53 PM,60.1,33.1,36,29.77,10.0,East,13.8,-,N/A,,Overcast,80,2013-04-29 02:53:00
9:53 PM,55.0,35.1,47,29.78,10.0,ENE,21.9,27.6,0.00,,Partly Cloudy,70,2013-04-29 03:53:00
10:53 PM,53.1,36.0,52,29.78,10.0,East,19.6,28.8,N/A,,Partly Cloudy,80,2013-04-29 04:53:00
11:53 PM,51.1,35.1,54,29.83,10.0,Variable,4.6,-,N/A,,Partly Cloudy,0,2013-04-29 05:53:00